This is the latest recevied weather packets stored in our database for station/object W0BJ. If no packets are shown the sender has not sent any weather packets the latest 10 day(s).
| Time | Temp. | Humidity | Pressure | Rain* | Wind** | Luminosity | Snow |
|---|---|---|---|---|---|---|---|
| 1777746744 | 16.67° C | 38% | 1022.3 hPa | 0 mm | - | - | - |
| 1777746198 | 17.22° C | 34% | 1022.3 hPa | 0 mm | - | - | - |
| 1777746144 | 17.22° C | 33% | 1022.2 hPa | 0 mm | - | - | - |
| 1777745543 | 17.22° C | 33% | 1022.2 hPa | 0 mm | - | - | - |
| 1777745299 | 17.22° C | 33% | 1022.3 hPa | 0 mm | - | - | - |
| 1777744944 | 16.67° C | 33% | 1022.5 hPa | 0 mm | - | - | - |
| 1777744398 | 16.11° C | 35% | 1022.4 hPa | 0 mm | - | - | - |
| 1777744344 | 16.11° C | 34% | 1022.4 hPa | 0 mm | - | - | - |
| 1777743743 | 15.56° C | 38% | 1022.5 hPa | 0 mm | - | - | - |
| 1777743499 | 15.56° C | 40% | 1022.5 hPa | 0 mm | - | - | - |
| 1777743145 | 15° C | 40% | 1022.7 hPa | 0 mm | - | - | - |
| 1777742598 | 16.11° C | 39% | 1022.8 hPa | 0 mm | - | - | - |
| 1777742544 | 15.56° C | 39% | 1022.8 hPa | 0 mm | - | - | - |
| 1777741943 | 14.44° C | 42% | 1022.8 hPa | 0 mm | - | - | - |
| 1777741697 | 13.89° C | 44% | 1022.8 hPa | 0 mm | - | - | - |
| 1777741345 | 13.89° C | 43% | 1022.7 hPa | 0 mm | - | - | - |
| 1777740798 | 13.33° C | 41% | 1022.9 hPa | 0 mm | - | - | - |
| 1777740744 | 13.33° C | 41% | 1022.8 hPa | 0 mm | - | - | - |
| 1777740144 | 13.89° C | 40% | 1022.8 hPa | 0 mm | - | - | - |
| 1777739898 | 13.89° C | 39% | 1022.8 hPa | 0 mm | - | - | - |
| 1777739543 | 13.89° C | 43% | 1022.6 hPa | 0 mm | - | - | - |
| 1777738999 | 14.44° C | 43% | 1022.8 hPa | 0 mm | - | - | - |
| 1777738945 | 14.44° C | 44% | 1022.7 hPa | 0 mm | - | - | - |
| 1777738344 | 13.89° C | 44% | 1022.8 hPa | 0 mm | - | - | - |
| 1777738098 | 13.89° C | 45% | 1022.7 hPa | 0 mm | - | - | - |
* Rain latest hour (hover to see other rain measurements)
** Current wind speed in m/s (hover to see current wind gust speed)